Time,TemperatureF,DewpointF,PressureIn,WindDirection,WindDirectionDegrees,WindSpeedMPH,WindSpeedGustMPH,Humidity,HourlyPrecipIn,Conditions,Clouds,dailyrainin,SolarRadiationWatts/m^2,SoftwareType,DateUTC
2013-07-19 00:00:00,73.3,70.5,30.05,ESE,112,0.0,0.0,91,0.00,,BKN018,0.00,0.00,VWS V14.00,2013-07-19 04:00:00,
2013-07-19 00:30:00,73.4,70.6,30.05,ESE,112,0.0,0.0,91,0.00,,BKN018,0.01,0.00,VWS V14.00,2013-07-19 04:30:00,
2013-07-19 01:00:00,73.8,71.0,30.05,ESE,112,0.0,1.0,91,0.00,,BKN018,0.01,0.00,VWS V14.00,2013-07-19 05:00:00,
2013-07-19 01:30:00,73.9,71.1,30.05,ESE,112,0.0,2.0,91,0.00,,BKN018,0.01,0.00,VWS V14.00,2013-07-19 05:30:00,
2013-07-19 02:00:00,74.0,71.2,30.05,ESE,112,0.0,1.0,91,0.00,,BKN018,0.01,0.00,VWS V14.00,2013-07-19 06:00:00,
2013-07-19 03:00:00,74.0,71.2,30.05,ESE,112,1.0,4.0,91,0.00,,BKN018,0.01,0.00,VWS V14.00,2013-07-19 07:00:00,
2013-07-19 03:30:00,74.0,71.2,30.04,ESE,112,0.0,1.0,91,0.00,,BKN018,0.01,0.00,VWS V14.00,2013-07-19 07:30:00,
2013-07-19 04:00:00,74.0,71.2,30.04,ESE,112,0.0,1.0,91,0.00,,BKN018,0.01,0.00,VWS V14.00,2013-07-19 08:00:00,
2013-07-19 04:30:00,73.9,71.1,30.04,ESE,112,0.0,2.0,91,0.00,,BKN018,0.01,0.00,VWS V14.00,2013-07-19 08:30:00,
2013-07-19 05:00:00,73.8,71.0,30.04,ESE,112,0.0,1.0,91,0.00,,BKN018,0.01,0.00,VWS V14.00,2013-07-19 09:00:00,
2013-07-19 05:30:00,73.8,71.0,30.04,ESE,112,0.0,1.0,91,0.00,,BKN018,0.01,0.00,VWS V14.00,2013-07-19 09:30:00,
2013-07-19 06:00:00,73.8,71.0,30.04,ESE,112,0.0,3.0,91,0.00,,BKN018,0.01,0.00,VWS V14.00,2013-07-19 10:00:00,
2013-07-19 06:30:00,74.0,71.2,30.04,ESE,112,0.0,3.0,91,0.00,,BKN018,0.01,0.00,VWS V14.00,2013-07-19 10:30:00,
2013-07-19 07:00:00,74.3,71.5,30.05,ESE,112,0.0,3.0,91,0.00,,BKN018,0.01,0.00,VWS V14.00,2013-07-19 11:00:00,
2013-07-19 07:30:00,74.7,71.9,30.06,ESE,112,0.0,1.0,91,0.00,,BKN018,0.01,57.00,VWS V14.00,2013-07-19 11:30:00,
2013-07-19 08:00:00,75.6,72.8,30.06,ESE,112,0.0,1.0,91,0.00,,BKN018,0.01,145.00,VWS V14.00,2013-07-19 12:00:00,
2013-07-19 08:30:00,78.6,75.8,30.07,ESE,112,0.0,5.0,91,0.00,,BKN018,0.01,241.00,VWS V14.00,2013-07-19 12:30:00,
2013-07-19 09:00:00,80.0,76.5,30.06,ESE,112,2.0,10.0,89,0.00,,BKN018,0.01,136.00,VWS V14.00,2013-07-19 13:00:00,
2013-07-19 09:30:00,82.1,77.2,30.06,SE,135,4.0,10.0,85,0.00,,BKN018,0.01,137.00,VWS V14.00,2013-07-19 13:30:00,
2013-07-19 10:00:00,83.4,77.7,30.07,SSE,158,4.0,11.0,83,0.00,,BKN018,0.01,149.00,VWS V14.00,2013-07-19 14:00:00,
2013-07-19 10:30:00,83.1,76.3,30.07,SSE,158,6.0,13.0,80,0.00,,BKN018,0.01,122.00,VWS V14.00,2013-07-19 14:30:00,
2013-07-19 11:00:00,83.5,76.7,30.08,SSE,158,6.0,12.0,80,0.00,,BKN018,0.01,107.00,VWS V14.00,2013-07-19 15:00:00,
2013-07-19 12:30:00,86.1,77.7,30.07,South,180,7.0,17.0,76,0.00,,BKN018,0.01,251.00,VWS V14.00,2013-07-19 16:30:00,
2013-07-19 13:00:00,85.7,76.1,30.06,South,180,8.0,18.0,73,0.00,,BKN018,0.01,248.00,VWS V14.00,2013-07-19 17:00:00,
2013-07-19 13:30:00,86.1,76.8,30.06,South,180,7.0,16.0,74,0.00,,BKN018,0.01,198.00,VWS V14.00,2013-07-19 17:30:00,
2013-07-19 14:00:00,86.2,76.5,30.04,SSE,158,7.0,17.0,73,0.00,,BKN018,0.01,217.00,VWS V14.00,2013-07-19 18:00:00,
2013-07-19 15:00:00,86.4,75.9,30.03,SSE,158,8.0,15.0,71,0.00,,BKN018,0.01,213.00,VWS V14.00,2013-07-19 19:00:00,
2013-07-19 15:30:00,85.9,75.8,30.03,South,180,8.0,21.0,72,0.00,,BKN018,0.01,158.00,VWS V14.00,2013-07-19 19:30:00,
2013-07-19 16:00:00,84.5,76.9,30.02,SSE,158,7.0,15.0,78,0.00,,BKN018,0.01,94.00,VWS V14.00,2013-07-19 20:00:00,
2013-07-19 16:30:00,84.1,76.1,30.02,South,180,7.0,17.0,77,0.00,,BKN018,0.01,73.00,VWS V14.00,2013-07-19 20:30:00,
2013-07-19 17:00:00,83.6,77.2,30.02,SSE,158,5.0,16.0,81,0.00,,BKN018,0.01,48.00,VWS V14.00,2013-07-19 21:00:00,
2013-07-19 18:00:00,83.1,76.7,30.00,South,180,6.0,14.0,81,0.00,,BKN018,0.01,68.00,VWS V14.00,2013-07-19 22:00:00,
2013-07-19 18:30:00,83.1,77.0,30.00,SSE,158,6.0,14.0,82,0.00,,BKN018,0.01,54.00,VWS V14.00,2013-07-19 22:30:00,
2013-07-19 19:00:00,83.4,77.0,30.01,SSE,158,6.0,12.0,81,0.00,,BKN018,0.01,73.00,VWS V14.00,2013-07-19 23:00:00,
2013-07-19 19:30:00,82.8,76.8,30.01,SSE,158,5.0,12.0,82,0.00,,BKN018,0.01,28.00,VWS V14.00,2013-07-19 23:30:00,
2013-07-19 20:30:00,81.8,76.5,30.02,SSE,158,4.0,12.0,84,0.00,,BKN018,0.01,0.00,VWS V14.00,2013-07-20 00:30:00,
2013-07-19 22:00:00,81.4,76.8,30.06,SSE,158,0.0,4.0,86,0.00,,BKN018,0.01,0.00,VWS V14.00,2013-07-20 02:00:00,
2013-07-19 22:30:00,81.6,77.0,30.07,SSE,158,2.0,7.0,86,0.00,,BKN018,0.01,0.00,VWS V14.00,2013-07-20 02:30:00,
2013-07-19 23:00:00,81.4,76.8,30.08,SSE,158,2.0,7.0,86,0.00,,BKN018,0.01,0.00,VWS V14.00,2013-07-20 03:00:00,
2013-07-19 23:30:00,81.3,76.7,30.08,SSE,158,1.0,7.0,86,0.00,,BKN018,0.01,0.00,VWS V14.00,2013-07-20 03:30:00,